Terminal Aerodrome Forecast
Issued by NWS Omaha/Valley, NE

Home | Current Version | Previous Version | Graphics & Text | Print | Product List | Glossary On
Versions: 1 2 3 4 5 6 7 8 9 10 11 12 13 14 15 16 17 18 19 20 21 22 23 24 25 26 27 28 29 30 31 32 33 34 35 36 37 38 39 40 41 42
000
FTUS43 KOAX 181734
TAFOFK
TAF
KOFK 181734Z 1818/1918 20019G32KT P6SM FEW250
     FM182200 18009KT P6SM SCT250
     FM190000 34009KT P6SM SCT100
     FM190400 35014G22KT P6SM BKN020
     FM190600 36014G22KT P6SM -FZDZ BKN015
     FM191200 36016G24KT P6SM OVC015 PROB30 1912/1918 4SM -FZDZSN
      OVC003=

USA.gov is the U.S. government's official web portal to all federal, state and local government web resources and services.